This is the latest recevied weather packets stored in our database for station/object S57PNX-8. If no packets are shown the sender has not sent any weather packets the latest 10 day(s).
| Time | Temp. | Humidity | Pressure | Rain* | Wind** | Luminosity | Snow |
|---|---|---|---|---|---|---|---|
| 1777672435 | 10.56° C | 45% | 1030.4 hPa | - | - | - | - |
| 1777671536 | 11.11° C | 44% | 1030.5 hPa | - | - | - | - |
| 1777669738 | 11.11° C | 43% | 1030.5 hPa | - | - | - | - |
| 1777668839 | 11.67° C | 42% | 1030.5 hPa | - | - | - | - |
| 1777667940 | 11.67° C | 42% | 1030.5 hPa | - | - | - | - |
| 1777666143 | 12.22° C | 42% | 1030.2 hPa | - | - | - | - |
| 1777664346 | 12.78° C | 41% | 1030 hPa | - | - | - | - |
| 1777663448 | 12.78° C | 41% | 1029.9 hPa | - | - | - | - |
| 1777662545 | 13.33° C | 41% | 1029.7 hPa | - | - | - | - |
| 1777661718 | 13.89° C | 40% | 1029.7 hPa | - | - | - | - |
| 1777661645 | 13.89° C | 40% | 1029.7 hPa | - | - | - | - |
| 1777660745 | 14.44° C | 39% | 1029.4 hPa | - | - | - | - |
| 1777659843 | 15° C | 39% | 1029.2 hPa | - | - | - | - |
| 1777658943 | 15.56° C | 37% | 1029.1 hPa | - | - | - | - |
| 1777658044 | 16.11° C | 36% | 1028.9 hPa | - | - | - | - |
| 1777657145 | 16.67° C | 36% | 1028.9 hPa | - | - | - | - |
| 1777656282 | 17.22° C | 35% | 1028.9 hPa | - | - | - | - |
| 1777656242 | 17.22° C | 35% | 1028.9 hPa | - | - | - | - |
| 1777655381 | 17.22° C | 35% | 1028.8 hPa | - | - | - | - |
| 1777655343 | 17.22° C | 35% | 1028.8 hPa | - | - | - | - |
| 1777654444 | 17.22° C | 35% | 1028.8 hPa | - | - | - | - |
| 1777653545 | 17.78° C | 35% | 1028.8 hPa | - | - | - | - |
| 1777652645 | 17.78° C | 33% | 1028.8 hPa | - | - | - | - |
| 1777651747 | 18.89° C | 31% | 1028.8 hPa | - | - | - | - |
| 1777650848 | 18.89° C | 32% | 1028.8 hPa | - | - | - | - |
* Rain since midnight (hover to see other rain measurements)
** Current wind speed in m/s (hover to see current wind gust speed)